GCLPGCLA

Guest
Details From GCLP - Gran Canaria
To GCLA - La Palma
Flight Number -
Tags generated
Created
Modified
Stats Distance 137 nm / 254 km
Max Altitude 14,500 ft / 4,420 m
Waypoints 3
Social Downloads 0
Likes 0
Share VATSIM

Download

Looking for another format? Having issues loading an existing format? Contact us
Advertisement - Login to hide

Notes

Basic altitude profile: - Ascent Rate: 3000ft/min - Ascent Speed: 250kts - Cruise Altitude: 20000ft - Cruise Speed: 350kts - Descent Rate: 1800ft/min - Descent Speed: 250kts Options: - Use NATs: yes - Use PACOTS: yes - Use low airways: yes - Use high airways: yes

Route

GCLP TFS GCLA

ID Type Via Altitude Latitude Longitude Leg Dist Tot Dist Heading (true) Name
O GCLP APT - 0 ft / 0 m 27.93154˚ -15.38559˚ - 0 nm - Gran Canaria
TFS VOR - 14,500 ft / 4,420 m 28.00245˚ -16.68793˚ 69 nm 69 nm 274° / 273° TENERIFE SUR VOR-DME
O GCLA APT - 0 ft / 0 m 28.62648˚ -17.75561˚ 67 nm 136 nm 304° / 303° La Palma

Altitude Profile

Advertisement - Login to hide

GCLP

Details ICAO GCLP (LPA)
Name Gran Canaria
Region Canary Islands
Timezone Atlantic/Canary (UTC+1.0)
Stats Elevation 77 ft / 23 m (AMSL)
Location 27.931544° -15.385592°
Runways 2
Magnetic Variation 4.634° W

METAR

GCLP 231900Z 35013KT 320V020 9999 FEW025 BKN045 19/13 Q1018 NOSIG

Decode

TAF

TAF GCLP 231400Z 2315/2415 04015KT 9999 SCT035 TX24/2414Z TN18/2405Z BECMG 2322/2324 32005KT BECMG 2409/2410 03015KT

Decode

Departure Runways

ID Width Length Bearing (true) Bearing (mag) Surface Threshold Offset Overrun Length
03L 148 ft / 45 m 10,203 ft / 3,110 m 21.33° 25.96° Asphalt 0 ft / 0 m 656 ft / 200 m
03R 148 ft / 45 m 10,200 ft / 3,109 m 21.32° 25.95° Asphalt 0 ft / 0 m 673 ft / 205 m
21L 148 ft / 45 m 10,200 ft / 3,109 m 201.33° 205.96° Asphalt 0 ft / 0 m 689 ft / 210 m
21R 148 ft / 45 m 10,203 ft / 3,110 m 201.33° 205.96° Asphalt 0 ft / 0 m 755 ft / 230 m

GCLA

Details ICAO GCLA (SPC)
Name La Palma
Region Canary Islands
Timezone Atlantic/Canary (UTC+1.0)
Stats Elevation 107 ft / 33 m (AMSL)
Location 28.626480° -17.755613°
Runways 1
Magnetic Variation 5.470° W

METAR

GCLA 231900Z 24006KT 200V270 9999 SCT050 20/10 Q1019

Decode

TAF

TAF GCLA 231400Z 2315/2415 03011KT 9999 SCT040 TX22/2414Z TN16/2405Z PROB40 TEMPO 2318/2322 18006KT

Decode

Destination Runways

ID Width Length Bearing (true) Bearing (mag) Surface Threshold Offset Overrun Length
01 148 ft / 45 m 7,240 ft / 2,207 m 359.02° 4.49° Asphalt 0 ft / 0 m 279 ft / 85 m
19 148 ft / 45 m 7,240 ft / 2,207 m 179.02° 184.49° Asphalt 0 ft / 0 m 236 ft / 72 m

Popular Alternatives